Location: Cambridge (historical)
(38.6883°N, 119.0140°W)
Time: 17:15:32
(UTC+00:00)

SL-14 R/B - Pass Details

Date: 29 October 2020
Orbit: 518 x 554 km, 82.4° (Epoch: 22 November)

Event Time Altitude Azimuth Distance (km) Brightness Sun altitude
Exits shadow 13:02:44 27° 301° (WNW) 1,086 4.3 -15.7°
Drops below altitude 10° 13:05:36 10° 344° (NNW) 1,833 5.8 -15.1°
Sets 13:08:01 0° 356° (N) 2,736 6.8 -14.6°
